カタログに戻る

SL-24 DEB

運用中LEO
NORAD 29256·DEBRIS·🇷🇺 Russia

打ち上げ Jul 12, 2006 から Dombarovsky

Loading…

次のパス (今後24時間)

TLE

最新Source: Space-Track

元期: Sep 14, 2026, 10:29 UTC

1 29256U 06029C   26257.43727189 -.00000017  00000-0  26739-4 0  9994
2 29256  64.5768 168.5483 0820608 248.7291 102.4260 13.35159469982565

AllMySatでSL-24 DEBをリアルタイム追跡

Download on the App Store